Location: Newark
(43.0000°N, 1.6781°W)
Time: 11:14:59
(UTC+00:00)

Explorer 7 - Pass Details

Date: 21 April 2021
Orbit: 484 x 677 km, 50.3° (Epoch: 07 May)

Event Time Altitude Azimuth Distance (km) Brightness Sun altitude
Rises 03:15:21 0° 287° (WNW) 2,908 - -20.1°
Reaches altitude 10° 03:18:32 10° 263° (W) 2,034 - -19.6°
Maximum altitude 03:21:08 15° 230° (SW) 1,754 - -19.2°
Drops below altitude 10° 03:23:47 10° 196° (SSW) 2,073 - -18.9°
Sets 03:27:05 0° 173° (S) 3,000 - -18.4°
